GW6646 Weather Reports


time (UTC)temp
F
wind
direction
speed
knots
gust
knots
rain 1hr
in
rain 24hr
in
rain mn
in
humidity
%
barometer
mb
20260504150710 56 9 6.1 8.7 0.00 0.00 0.00 68
20260504150207 56 317 5.2 8.7 0.00 0.00 0.00 68
20260504141136 57 44 4.3 7.0 0.00 0.04 0.04 70
20260504140633 57 54 7.8 9.6 0.00 0.04 0.04 70
20260504140128 57 63 5.2 9.6 0.00 0.04 0.04 70
20260504130556 58 38 5.2 7.8 0.00 0.04 0.04 70
20260504110444 59 93 6.1 7.8 0.00 0.04 0.04 71
20260504100406 60 58 5.2 6.1 0.00 0.04 0.04 70
20260504081800 65 35 5.2 13.9 0.00 0.04 0.04 62
20260504081256 67 53 3.5 7.8 0.00 0.04 0.04 59
20260504080753 69 36 7.8 12.2 0.00 0.04 0.04 46
20260504080249 69 31 11.3 14.8 0.00 0.04 0.04 42
20260504070217 71 342 15.6 20.0 0.00 0.04 0.04 43
20260504060137 71 25 15.6 20.9 0.00 0.04 0.04 42
20260504050606 71 6 13.0 20.9 0.00 0.04 0.04 42
20260504045559 71 47 9.6 16.5 0.00 0.04 0.04 41
20260504045054 71 351 8.7 18.2 0.00 0.04 0.04 41
20260504044552 71 31 10.4 15.6 0.00 0.04 0.04 41
20260504044049 71 4 9.6 13.0 0.00 0.04 0.04 42
20260504043546 71 358 11.3 18.2 0.00 0.04 0.04 39
20260504043043 71 5 13.9 18.2 0.00 0.04 0.04 40
20260504042540 71 0 13.9 23.5 0.00 0.04 0.04 39
20260504042037 72 10 11.3 18.2 0.00 0.04 0.04 41
20260504041533 72 32 13.0 16.5 0.00 0.04 0.04 41
20260504041029 72 1 14.8 18.2 0.00 0.04 0.04 42
20260504040527 72 34 13.0 16.5 0.00 0.04 0.04 42
20260504040024 72 353 11.3 14.8 0.00 0.04 0.04 45
20260504035521 72 6 18.2 20.9 0.00 0.04 0.04 43
20260504035017 72 3 12.2 21.7 0.00 0.04 0.04 45
20260504034515 72 0 9.6 19.1 0.00 0.04 0.04 47
20260504034011 72 29 15.6 18.2 0.00 0.04 0.04 46
20260504033509 71 358 13.0 19.1 0.00 0.04 0.04 45
20260504033007 72 6 16.5 23.5 0.00 0.04 0.04 46
20260504032503 72 0 12.2 21.7 0.00 0.04 0.04 47
20260504032000 71 358 11.3 13.9 0.00 0.04 0.04 49
20260504031456 71 356 13.0 14.8 0.00 0.04 0.04 49
20260504030953 71 322 15.6 20.9 0.00 0.04 0.04 49
20260504030451 71 22 13.9 22.6 0.00 0.04 0.04 48
20260504025946 70 357 12.2 21.7 0.00 0.04 0.04 51
20260504025443 70 10 19.1 22.6 0.00 0.04 0.04 53
20260504024940 70 26 10.4 20.9 0.00 0.04 0.04 53
20260504024437 71 18 12.2 16.5 0.00 0.04 0.04 53
20260504023934 71 4 18.2 22.6 0.00 0.04 0.04 53
20260504023431 71 351 9.6 21.7 0.00 0.04 0.04 53
20260504022926 72 348 12.2 18.2 0.00 0.04 0.04 52
20260504022423 71 2 17.4 20.0 0.00 0.04 0.04 52
20260504021920 71 105 10.4 20.9 0.00 0.04 0.04 54
20260504021417 71 8 13.0 27.8 0.00 0.04 0.04 53
20260504020914 72 23 10.4 14.8 0.00 0.04 0.04 53
20260504020411 72 352 10.4 16.5 0.00 0.04 0.04 53
20260504015907 71 4 13.9 18.2 0.00 0.04 0.04 54
20260504015403 71 9 14.8 19.1 0.00 0.04 0.04 55
20260504014859 71 9 16.5 20.9 0.00 0.04 0.04 54
20260504014355 71 345 18.2 20.0 0.00 0.04 0.04 54
20260504013853 71 8 16.5 27.8 0.00 0.04 0.04 54
20260504013351 71 358 12.2 15.6 0.00 0.04 0.04 54
20260504012847 72 61 7.8 13.9 0.00 0.04 0.04 56
20260504012345 72 13 12.2 19.1 0.00 0.04 0.04 54
20260504011842 71 2 17.4 20.0 0.00 0.04 0.04 54
20260504011339 70 350 13.0 16.5 0.00 0.04 0.04 56
20260504010835 69 23 6.1 16.5 0.00 0.04 0.04 57
20260504010330 69 19 19.1 22.6 0.00 0.04 0.04 55
20260504005827 70 357 17.4 21.7 0.00 0.04 0.04 56
20260504005324 70 348 13.9 23.5 0.00 0.04 0.04 55
20260504004822 71 2 16.5 20.0 0.00 0.04 0.04 55
20260504004319 70 357 14.8 15.6 0.00 0.04 0.04 56
20260504003815 69 336 14.8 20.0 0.00 0.04 0.04 58
20260504003312 69 6 13.9 21.7 0.00 0.04 0.04 59
20260504002809 69 1 18.2 23.5 0.00 0.04 0.04 59
20260504002306 69 353 9.6 22.6 0.00 0.04 0.04 61
20260504001804 69 343 14.8 16.5 0.00 0.04 0.04 61
20260504001300 69 348 12.2 20.0 0.00 0.04 0.04 61
20260504000757 69 6 14.8 23.5 0.00 0.04 0.04 60
20260504000254 69 349 21.7 26.9 0.00 0.04 0.04 60
20260503235752 69 353 14.8 20.9 0.00 0.04 0.04 62
20260503235249 69 77 10.4 16.5 0.00 0.04 0.04 63
20260503234747 68 12 11.3 16.5 0.00 0.04 0.04 64
20260503234245 68 3 6.1 11.3 0.00 0.04 0.04 68
20260503233742 67 114 0.0 6.1 0.00 0.04 0.04 70
20260503233238 67 8 8.7 11.3 0.00 0.04 0.04 69
20260503232734 67 8 9.6 13.0 0.00 0.04 0.04 69
20260503232232 67 325 1.7 6.1 0.00 0.04 0.04 71
20260503231730 66 22 1.7 3.5 0.00 0.04 0.04 71
20260503231226 66 23 1.7 8.7 0.00 0.04 0.04 72
20260503230722 66 5 5.2 7.8 0.00 0.04 0.04 72
20260503230220 66 351 7.8 11.3 0.00 0.04 0.04 71
20260503225717 66 332 7.0 12.2 0.00 0.04 0.04 72
20260503225217 66 342 7.8 8.7 0.00 0.04 0.04 73
20260503224715 66 8 8.7 12.2 0.00 0.04 0.04 73
20260503224213 66 349 7.8 18.2 0.00 0.04 0.04 73
20260503223710 66 347 13.0 19.1 0.00 0.04 0.04 73
20260503223207 66 332 13.0 20.0 0.00 0.04 0.04 73
20260503222704 66 23 8.7 18.2 0.00 0.04 0.04 75
20260503222201 66 355 13.0 16.5 0.00 0.04 0.04 75
20260503221700 66 357 12.2 15.6 0.00 0.04 0.04 77
20260503221156 66 59 7.0 12.2 0.00 0.04 0.04 79
20260503220653 65 56 4.3 9.6 0.00 0.04 0.04 80
20260503220150 65 11 1.7 2.6 0.00 0.04 0.04 81
20260503215647 65 76 2.6 5.2 0.00 0.04 0.04 82
20260503215143 65 41 0.9 5.2 0.00 0.04 0.04 83
20260503214642 65 109 0.0 0.9 0.00 0.04 0.04 83
20260503214138 65 327 1.7 2.6 0.00 0.04 0.04 83
20260503213637 65 110 0.9 2.6 0.00 0.04 0.04 83
20260503213134 65 62 1.7 3.5 0.00 0.04 0.04 83
20260503212631 65 31 2.6 7.0 0.00 0.04 0.04 82
20260503212129 65 25 2.6 2.6 0.00 0.04 0.04 82
20260503211626 65 79 1.7 2.6 0.00 0.04 0.04 82
20260503211121 65 60 1.7 2.6 0.00 0.04 0.04 82
20260503210618 65 75 0.9 0.9 0.00 0.04 0.04 82
20260503210115 65 49 2.6 5.2 0.00 0.04 0.04 81
20260503205610 65 33 4.3 7.8 0.00 0.04 0.04 82
20260503205107 65 343 5.2 7.8 0.00 0.04 0.04 82
20260503204604 65 39 5.2 7.0 0.00 0.04 0.04 82
20260503204101 65 358 2.6 7.0 0.00 0.04 0.04 83
20260503203558 65 18 7.0 9.6 0.00 0.04 0.04 84
20260503203055 65 25 2.6 6.1 0.00 0.04 0.04 85
20260503202553 65 2 6.1 7.8 0.00 0.04 0.04 84
20260503202051 66 15 4.3 11.3 0.00 0.04 0.04 83
20260503201549 66 357 4.3 12.2 0.00 0.04 0.04 82
20260503201046 67 352 6.1 12.2 0.00 0.04 0.04 83
20260503200541 67 350 6.1 9.6 0.00 0.04 0.04 84
20260503200038 67 24 7.0 9.6 0.00 0.04 0.04 86
20260503195535 67 16 3.5 6.1 0.00 0.04 0.04 87
20260503195032 67 27 4.3 9.6 0.00 0.04 0.04 88
20260503194529 67 110 1.7 3.5 0.00 0.04 0.04 90
20260503194029 67 76 1.7 3.5 0.00 0.04 0.04 91
20260503193527 67 105 0.0 1.7 0.00 0.04 0.04 91
20260503193021 67 107 0.9 1.7 0.00 0.04 0.04 91
20260503192518 67 22 1.7 2.6 0.00 0.04 0.04 92
20260503192014 66 98 1.7 3.5 0.00 0.04 0.04 93
20260503191511 66 0 0.9 2.6 0.00 0.04 0.04 93
20260503191008 66 46 0.9 2.6 0.00 0.04 0.04 94
20260503190505 66 98 0.9 1.7 0.00 0.04 0.04 94
20260503190002 66 115 0.0 0.0 0.00 0.04 0.04 94
20260503185458 66 123 0.0 0.9 0.00 0.04 0.04 94
20260503184957 66 114 0.0 0.0 0.00 0.04 0.04 94
20260503184454 66 110 0.0 0.9 0.00 0.04 0.04 94
20260503183951 66 125 0.0 2.6 0.00 0.04 0.04 94
20260503183447 66 128 0.9 0.9 0.00 0.04 0.04 94
20260503182944 66 120 0.9 1.7 0.00 0.04 0.04 94
20260503182443 66 151 0.0 0.0 0.00 0.04 0.04 94
20260503181940 66 129 0.9 0.9 0.00 0.04 0.04 94
20260503181437 66 128 0.0 0.9 0.00 0.04 0.04 94
20260503180933 66 153 0.9 1.7 0.00 0.04 0.04 94
20260503180431 66 122 0.0 0.0 0.00 0.04 0.04 93
20260503175928 66 109 0.0 0.0 0.00 0.04 0.04 93
20260503175426 66 99 0.0 0.9 0.00 0.04 0.04 93
20260503174922 66 101 0.0 0.9 0.07 0.04 0.04 93
20260503174420 66 87 0.9 0.9 0.07 0.04 0.04 93
20260503173920 66 120 0.9 2.6 0.05 0.03 0.03 93
20260503173417 66 3 2.6 3.5 0.12 0.03 0.03 92
20260503172913 66 127 0.9 2.6 0.07 0.02 0.02 92
20260503172411 66 2 3.5 5.2 0.00 0.01 0.01 92
20260503171907 66 45 2.6 6.1 0.00 0.01 0.01 91
20260503171404 66 38 5.2 7.8 0.00 0.01 0.01 91
20260503170901 66 48 2.6 8.7 0.00 0.01 0.01 91
20260503170357 66 12 5.2 11.3 0.00 0.01 0.01 90